FW6857 Weather Reports


time (UTC)temp
F
wind
direction
speed
knots
gust
knots
rain 1hr
in
rain 24hr
in
rain mn
in
humidity
%
barometer
mb
20260906044555 59 0 0.0 0.0 0.00 0.00 0.00 97 1013.2
20260906043053 59 0 0.0 0.0 0.00 0.00 0.00 97 1013.3
20260906041554 59 0 0.0 0.0 0.00 0.00 0.00 97 1013.2
20260906040103 60 0 0.0 0.0 0.00 0.00 0.00 97 1013.2
20260906034548 60 0 0.0 0.0 0.00 0.00 0.00 97 1013.2
20260906033054 60 0 0.0 0.0 0.00 0.00 0.00 97 1013.1
20260906031553 60 0 0.0 0.0 0.00 0.00 0.00 97 1013.0
20260906030052 61 0 0.0 0.0 0.00 0.00 0.00 96 1012.7
20260906024559 61 0 0.0 0.0 0.00 0.00 0.00 96 1012.6
20260906023053 61 0 0.0 0.0 0.00 0.00 0.00 96 1012.7
20260906021551 62 0 0.0 0.0 0.00 0.00 0.00 96 1012.5
20260906020049 62 0 0.0 0.0 0.00 0.00 0.00 96 1012.6
20260906014633 62 0 0.0 0.0 0.00 0.00 0.00 95 1012.4
20260906013059 63 0 0.0 0.0 0.00 0.00 0.00 96 1012.1
20260906011558 63 0 0.0 0.0 0.00 0.00 0.00 95 1012.2
20260906010054 63 0 0.0 0.0 0.00 0.00 0.00 95 1012.0
20260906004603 63 0 0.0 0.0 0.00 0.00 0.00 95 1011.7
20260906003108 64 0 0.0 0.0 0.00 0.00 0.00 94 1011.7
20260906001549 64 0 0.0 0.0 0.00 0.00 0.00 93 1011.8
20260906000047 65 0 0.0 0.0 0.00 0.00 0.00 93 1011.5
20260905234545 66 0 0.0 0.0 0.00 0.00 0.00 91 1011.4
20260905233054 67 0 0.0 0.0 0.00 0.00 0.00 89 1011.3
20260905231549 68 0 0.0 0.0 0.00 0.00 0.00 87 1011.4
20260905230054 69 0 0.0 0.0 0.00 0.00 0.00 84 1011.3
20260905224555 71 0 0.0 0.0 0.00 0.00 0.00 82 1011.0
20260905223049 72 0 0.0 0.9 0.00 0.00 0.00 77 1010.9
20260905221606 74 0 0.0 0.0 0.00 0.00 0.00 71 1010.8
20260905220057 76 0 0.0 0.9 0.00 0.00 0.00 65 1010.8
20260905214549 77 0 0.0 0.0 0.00 0.00 0.00 64 1010.4
20260905213105 79 0 0.0 0.9 0.00 0.00 0.00 59 1010.8
20260905211559 78 0 0.0 0.0 0.00 0.00 0.00 60 1010.5
20260905210058 78 0 0.0 1.7 0.00 0.00 0.00 64 1010.4
20260905204553 78 0 0.0 0.0 0.00 0.00 0.00 62 1010.3
20260905203104 78 0 0.0 2.6 0.00 0.00 0.00 60 1010.0
20260905201609 78 0 0.0 1.7 0.00 0.00 0.00 61 1010.3
20260905200054 78 0 0.0 0.9 0.00 0.00 0.00 59 1010.2
20260905194550 78 0 0.0 0.9 0.00 0.00 0.00 58 1010.1
20260905193108 78 0 0.0 0.9 0.00 0.00 0.00 58 1010.1
20260905191555 78 0 0.0 0.0 0.00 0.00 0.00 61 1010.1
20260905190053 77 0 0.0 1.7 0.00 0.00 0.00 59 1010.3
20260905184603 77 0 0.0 0.9 0.00 0.00 0.00 64 1010.4
20260905183055 76 0 0.0 2.6 0.00 0.00 0.00 65 1010.5
20260905181606 75 0 0.0 2.6 0.00 0.00 0.00 65 1010.5
20260905180050 75 0 0.0 1.7 0.00 0.00 0.00 69 1010.7
20260905174602 75 0 0.0 0.0 0.00 0.00 0.00 69 1010.9
20260905173054 75 0 0.0 4.3 0.00 0.00 0.00 70 1010.8
20260905171551 75 0 0.0 0.9 0.00 0.00 0.00 68 1011.0
20260905164557 74 0 0.0 0.9 0.00 0.00 0.00 69 1010.9
20260905163055 73 0 0.0 0.9 0.00 0.00 0.00 74 1010.8
20260905161602 73 0 0.0 1.7 0.00 0.00 0.00 70 1010.9
20260905160052 73 0 0.0 1.7 0.00 0.00 0.00 72 1011.1
20260905154615 73 0 0.0 0.9 0.00 0.00 0.00 70 1011.1
20260905153054 73 0 0.0 1.7 0.00 0.00 0.00 72 1011.0
20260905151600 72 0 0.0 2.6 0.00 0.00 0.00 72 1011.3
20260905150048 72 0 0.0 1.7 0.00 0.00 0.00 75 1011.2
20260905144556 71 0 0.0 1.7 0.00 0.00 0.00 75 1011.1
20260905143054 71 0 0.0 4.3 0.00 0.00 0.00 78 1011.1
20260905141552 70 0 0.0 0.0 0.00 0.00 0.00 80 1011.1
20260905140051 69 0 0.0 0.0 0.00 0.00 0.00 83 1011.0
20260905134555 69 0 0.0 0.0 0.00 0.00 0.00 85 1011.1
20260905133055 67 0 0.0 0.9 0.00 0.00 0.00 86 1011.1
20260905131555 65 0 0.0 0.0 0.00 0.00 0.00 92 1011.3
20260905130054 64 0 0.0 0.0 0.00 0.00 0.00 98 1011.4
20260905124601 63 0 0.0 0.0 0.00 0.00 0.00 100 1011.6
20260905123057 62 0 0.0 0.0 0.00 0.00 0.00 100 1011.6
20260905121551 61 0 0.0 0.0 0.00 0.00 0.00 100 1011.6
20260905120053 59 0 0.0 0.0 0.00 0.00 0.00 99 1011.6
20260905114548 59 0 0.0 0.0 0.00 0.00 0.00 99 1011.5
20260905113056 58 0 0.0 0.0 0.00 0.00 0.00 99 1011.3
20260905111603 58 0 0.0 0.0 0.00 0.00 0.00 98 1011.0
20260905110058 58 0 0.0 0.0 0.00 0.00 0.00 98 1010.7
20260905104611 58 0 0.0 0.0 0.00 0.00 0.00 98 1010.6
20260905103055 58 0 0.0 0.0 0.00 0.00 0.00 98 1010.5
20260905101600 58 0 0.0 0.0 0.00 0.00 0.00 98 1010.6
20260905100059 59 0 0.0 0.0 0.00 0.00 0.00 98 1010.4
20260905094549 59 0 0.0 0.0 0.00 0.00 0.00 98 1010.3
20260905093056 59 0 0.0 0.0 0.00 0.00 0.00 98 1010.1
20260905091608 60 0 0.0 0.0 0.00 0.00 0.00 98 1010.2
20260905090053 60 0 0.0 0.0 0.00 0.00 0.00 98 1010.1
20260905084608 60 0 0.0 0.0 0.00 0.00 0.00 98 1010.1
20260905083056 61 0 0.0 0.0 0.00 0.00 0.00 98 1010.1
20260905081552 61 0 0.0 0.0 0.00 0.00 0.00 98 1010.2
20260905080109 62 0 0.0 0.0 0.00 0.00 0.00 98 1010.2
20260905074558 62 0 0.0 0.0 0.00 0.00 0.00 98 1010.3
20260905073058 62 0 0.0 0.0 0.00 0.00 0.00 98 1010.0
20260905071552 63 0 0.0 0.0 0.00 0.00 0.00 98 1010.1
20260905070109 63 0 0.0 0.0 0.00 0.00 0.00 99 1010.3
20260905064551 63 0 0.0 0.0 0.00 0.00 0.00 98 1010.3
20260905063059 63 0 0.0 0.0 0.00 0.00 0.00 98 1010.4
20260905061611 63 0 0.0 0.0 0.00 0.00 0.00 98 1010.6
20260905060059 63 0 0.0 0.0 0.00 0.00 0.00 98 1010.7
20260905054557 63 0 0.0 0.0 0.00 0.00 0.00 98 1010.8
20260905053103 63 0 0.0 0.0 0.00 0.00 0.00 98 1011.0
20260905051548 63 0 0.0 0.0 0.00 0.00 0.00 98 1011.2
20260905050055 63 0 0.0 0.0 0.00 0.00 0.00 98 1011.2